TimeCST,TemperatureF,Dew PointF,Humidity,Sea Level PressureIn,VisibilityMPH,Wind Direction,Wind SpeedMPH,Gust SpeedMPH,PrecipitationIn,Events,Conditions,WindDirDegrees,DateUTC
12:43 AM,78.8,75.2,89,29.92,8.0,Calm,Calm,-,N/A,,Clear,0,2012-11-19 06:43:00
1:43 AM,78.8,75.2,89,29.92,8.0,Calm,Calm,-,N/A,,Clear,0,2012-11-19 07:43:00
2:43 AM,78.8,75.2,89,29.94,8.0,Calm,Calm,-,N/A,,Clear,0,2012-11-19 08:43:00
2:45 AM,77,75,91,29.92,6,North,2.2,,,,,350,2012-11-19 08:45:00
3:42 AM,78.8,75.2,89,29.92,8.0,Calm,Calm,-,N/A,,Clear,0,2012-11-19 09:42:00
4:43 AM,77.0,73.4,89,29.92,8.0,Calm,Calm,-,N/A,,Clear,0,2012-11-19 10:43:00
5:45 AM,75,74,96,29.92,6,North,2.2,,,,Scattered Clouds,0,2012-11-19 11:45:00
5:59 AM,77.0,73.4,89,29.94,8.0,Calm,Calm,-,N/A,,Clear,0,2012-11-19 11:59:00
6:43 AM,77.0,73.4,89,29.92,7.0,Calm,Calm,-,N/A,,Clear,0,2012-11-19 12:43:00
7:45 AM,78.8,75.2,89,29.95,7.0,Calm,Calm,-,N/A,,Clear,0,2012-11-19 13:45:00
8:43 AM,82.4,75.2,79,29.95,7.0,Calm,Calm,-,N/A,,Clear,0,2012-11-19 14:43:00
8:50 AM,81,75,78,29.96,12,NNW,2.2,,,,,340,2012-11-19 14:50:00
9:44 AM,86.0,77.0,74,29.97,7.0,Calm,Calm,-,N/A,,Clear,0,2012-11-19 15:44:00
10:49 AM,86.0,77.0,74,29.96,7.0,Calm,Calm,-,N/A,,Clear,0,2012-11-19 16:49:00
11:48 AM,89.6,75.2,62,29.90,7.0,SW,6.9,-,N/A,,Clear,230,2012-11-19 17:48:00
11:50 AM,89,74,53,29.92,12,SW,4.5,,,,Scattered Clouds,230,2012-11-19 17:50:00
12:56 PM,91.4,77.0,63,29.91,8.0,WSW,6.9,-,N/A,,Clear,240,2012-11-19 18:56:00
1:47 PM,91.4,77.0,63,29.88,7.0,WSW,11.5,-,N/A,,Clear,240,2012-11-19 19:47:00
2:44 PM,87.8,75.2,66,29.85,7.0,WSW,11.5,-,N/A,,Clear,240,2012-11-19 20:44:00
2:50 PM,88,77,64,29.86,12,SSW,6.7,,,,Partly Cloudy,200,2012-11-19 20:50:00
3:43 PM,87.8,75.2,66,29.84,-9999.0,WSW,9.2,-,N/A,,Scattered Clouds,240,2012-11-19 21:43:00
4:44 PM,86.0,77.0,74,29.94,7.0,WSW,9.2,-,N/A,,Scattered Clouds,240,2012-11-19 22:44:00
5:42 PM,86.0,77.0,74,29.85,7.0,WSW,5.8,-,N/A,,Scattered Clouds,240,2012-11-19 23:42:00
5:50 PM,86,75,63,29.85,12,SSW,6.7,,,,Partly Cloudy,200,2012-11-19 23:50:00
6:42 PM,84.2,77.0,79,29.86,7.0,SW,6.9,-,N/A,,Scattered Clouds,230,2012-11-20 00:42:00
7:45 PM,84.2,75.2,74,29.88,7.0,West,9.2,-,N/A,,Scattered Clouds,260,2012-11-20 01:45:00
8:44 PM,84.2,75.2,74,29.90,8.0,Calm,Calm,-,N/A,,Scattered Clouds,0,2012-11-20 02:44:00
8:50 PM,80,76,84,29.90,6,NNW,2.2,,,,Scattered Clouds,340,2012-11-20 02:50:00
9:43 PM,84.2,75.2,74,29.90,8.0,Calm,Calm,-,N/A,,Clear,0,2012-11-20 03:43:00
10:42 PM,84.2,75.2,74,29.90,8.0,Calm,Calm,-,N/A,,Clear,0,2012-11-20 04:42:00
11:42 PM,84.2,75.2,74,29.90,8.0,Calm,Calm,-,N/A,,Clear,0,2012-11-20 05:42:00
11:50 PM,79,77,90,29.91,6,NE,2.2,,,,Scattered Clouds,40,2012-11-20 05:50:00